Flag for U.S.A. Weather past 2 weeks in South Bend, Indiana, U.S.A.

Now
74 °F

Scattered clouds.


Feels Like: 75 °F
Forecast: 57 / 73 °F
Wind: 3 mph from West

Location: Michiana Regional Airport

Current Time: May 30, 2015 at 3:05:40 PM

Latest Report: May 30, 2015 at 1:54 PM


Visibility: 10 mi

Pressure: 29.97 "Hg

Humidity: 76%

Dew point: 66 °F

Location of South BendLocation

Historic Weather in South Bend — Graph

°F

South Bend temperature yesterday

Maximum temperature yesterday: 84 °F (at 3:54 PM)
Minimum temperature yesterday: 65 °F (at 5:54 AM)
Average temperature yesterday: 75 °F

Past Weeks' High & Low Weather Summary

 TemperatureHumidityPressure
High84 °F (May 29, 3:54 PM)94% (May 16, 6:54 AM)30.38 "Hg (May 16, 6:54 AM)
Low37 °F (May 20, 1:54 AM)22% (May 23, 5:54 PM)29.82 "Hg (May 26, 6:54 PM)
Average66 °F65%30.07 "Hg
* Reported May 15 2:01 PM — May 30 1:54 PM, South Bend, Weather by CustomWeather, © 2015

Note: Actual official high and low records may vary slightly from our data, if they occured in-between our weather recording intervals... More about our weather records

Advertising

South Bend weather history for previous 24 hours

 ConditionsComfort  
Time TempWeatherWind HumidityBarometerVisibility
1:54 PM
Sat, May 30
74 °FScattered clouds.3 mph76%29.97 "Hg10 mi
12:54 PM71 °FLight rain. Cloudy.6 mph87%29.99 "Hg10 mi
11:54 AM71 °FRain. Fog.5 mph90%30.00 "Hg4 mi
10:54 AM72 °FMostly cloudy.5 mph81%29.99 "Hg10 mi
9:54 AM71 °FBroken clouds.5 mph87%29.99 "Hg10 mi
8:54 AM70 °FPartly sunny.7 mph90%29.98 "Hg10 mi
7:54 AM69 °FMostly cloudy.6 mph93%29.98 "Hg10 mi
6:54 AM68 °FRain. Fog.9 mph93%29.97 "Hg4 mi
5:54 AM69 °FLight rain. Mostly cloudy.9 mph87%29.95 "Hg10 mi
4:54 AM69 °FPassing clouds.7 mph90%29.94 "Hg10 mi
3:54 AM70 °FPassing clouds.7 mph87%29.95 "Hg10 mi
2:54 AM70 °FPassing clouds.8 mph90%29.95 "Hg10 mi
1:54 AM71 °FPassing clouds.8 mph87%29.95 "Hg10 mi
12:54 AM71 °FPassing clouds.7 mph87%29.96 "Hg10 mi
11:54 PM
Fri, May 29
71 °FPassing clouds.9 mph87%29.96 "Hg10 mi
10:54 PM71 °FLight rain. Overcast.13 mph90%29.97 "Hg10 mi
9:54 PM80 °FPartly sunny.13 mph56%29.93 "Hg10 mi
8:54 PM79 °FSunny.9 mph56%29.92 "Hg10 mi
7:54 PM82 °FSunny.13 mph49%29.92 "Hg10 mi
6:54 PM83 °FPassing clouds.15 mph48%29.92 "Hg10 mi
5:54 PM84 °FSunny.17 mph48%29.93 "Hg10 mi
4:54 PM84 °FPartly sunny.14 mph48%29.95 "Hg10 mi
3:54 PM84 °FPartly sunny.17 mph49%29.98 "Hg10 mi
Weather by CustomWeather, © 2015

See weather overviewHow to use our weather pages